Starlink 11402

operational
NORAD ID: 61874 Int'l Des: 2024-204 Owner: SPXS Country: US Constellation: starlink
LEOCIRCULAR

About Starlink 11402

Description loading...

Live Position

Loading 3D Globe...

Upcoming Passes

Altitude History

Altitude vs Time

uPlot chart will show altitude changes over time

Two-Line Element Set

1 61874U 24204A 25305.61025734 -.00001433 00000-0 -69693-5 0 9992
2 61874 53.1595 268.0126 0001627 91.5487 268.5718 15.69700972 57387
Epoch: Nov 1, 2025 • Age: 12 hours

Current Status

Altitude 379.3 km
Velocity 7.68 km/s
Sub-Earth Point -53.04°S, 104.44°E
Launch Date Nov 9, 2024
Age 0.9 years
Type internet

Technical Details

Classification Payload
Mass 960.00 kg
Dry Mass 910.00 kg
Total Mass 960.00 kg
Length 0.30 m
Diameter 4.10 m
Span 29.00 m
Shape Box + pan
Manufacturer SPXS
Bus Type Starlink V2MD
Phase Status In Orbit
Owner/State SPXS/US

Large Constellations

Loading constellations...